Printer-friendly version

IAU Minor Planet Center

Minor Planet Center

MPEC 2008-E57 : 2008 EP6

The following Minor Planet Electronic Circular may be linked-to from your own Web pages, but must not otherwise be redistributed electronically.


Read MPEC 2008-E56 Read MPEC 2008-E58


M.P.E.C. 2008-E57                                Issued 2008 Mar. 6, 15:52 UT

     The Minor Planet Electronic Circulars contain information on unusual
         minor planets and routine data on comets.  They are published
   on behalf of Commission 20 of the International Astronomical Union by the
          Minor Planet Center, Smithsonian Astrophysical Observatory,
                          Cambridge, MA 02138, U.S.A.

             Prepared using the Tamkin Foundation Computer Network

                              MPC@CFA.HARVARD.EDU
          URL http://www.cfa.harvard.edu/iau/mpc.html  ISSN 1523-6714

                                   2008 EP6

Observations:
     K08E06P* C2008 03 05.55029 06 33 39.56 -30 20 22.5          18.4 V EE057E12
     K08E06P  C2008 03 05.55825 06 33 41.72 -30 20 22.2          18.2 V EE057E12
     K08E06P  C2008 03 05.56620 06 33 43.84 -30 20 22.5          18.4 V EE057E12
     K08E06P  C2008 03 05.57414 06 33 45.97 -30 20 21.9          18.1 V EE057E12
     K08E06P  C2008 03 05.60971 06 33 55.64 -30 20 20.4          18.4 R EE057E12
     K08E06P  C2008 03 05.61303 06 33 56.53 -30 20 19.5          18.9 R EE057E12
     K08E06P  C2008 03 06.09448 06 36 11.01 -30 21 14.8          19.5 V EE057G96
     K08E06P  C2008 03 06.09551 06 36 11.30 -30 21 14.5          19.5 V EE057G96
     K08E06P  C2008 03 06.09662 06 36 11.59 -30 21 14.4          19.6 V EE057G96
     K08E06P  C2008 03 06.09773 06 36 11.88 -30 21 14.5          19.6 V EE057G96
     K08E06P  C2008 03 06.36076 06 37 22.21 -30 20 35.3          17.9 R EE057474
     K08E06P  C2008 03 06.36273 06 37 22.72 -30 20 35.5                 EE057474
     K08E06P  C2008 03 06.36458 06 37 23.16 -30 20 35.7          17.6 R EE057474
     K08E06P  C2008 03 06.37038 06 37 24.67 -30 20 35.6          18.0 R EE057474
     K08E06P  C2008 03 06.37292 06 37 25.32 -30 20 35.6          17.4 R EE057474
     K08E06P  C2008 03 06.47112 06 37 51.02 -30 20 41.2          18.2 V EE057E12
     K08E06P  C2008 03 06.47187 06 37 51.24 -30 20 41.9          18.1 V EE057E12
     K08E06P  C2008 03 06.47352 06 37 51.64 -30 20 41.6          18.3 V EE057E12
     K08E06P  C2008 03 06.47427 06 37 51.85 -30 20 41.4          18.2 V EE057E12
     K08E06P  C2008 03 06.47502 06 37 52.03 -30 20 41.1          18.3 V EE057E12

Observer details:
474 Mount John Observatory, Lake Tekapo.  Observer P. M. Kilmartin.  1.0-m
    f/7.7 reflector + CCD.
E12 Siding Spring Survey.  Observer G. J. Garradd.  Measurers E. C. Beshore,
    A. Boattini, G. J. Garradd, A. R. Gibbs, A. D. Grauer, R. E. Hill,
    R. A. Kowalski, S. M. Larson, R. H. McNaught.  0.5-m Uppsala Schmidt + CCD.
G96 Mt. Lemmon Survey.  Observer A. Boattini.  Measurers E. C. Beshore,
    A. Boattini, G. J. Garradd, A. R. Gibbs, A. D. Grauer, R. E. Hill,
    R. A. Kowalski, S. M. Larson, R. H. McNaught.  1.5-m reflector + CCD.

Orbital elements:
2008 EP6                                            PHA, Earth MOID = 0.0470 AU
Epoch 2008 May 14.0 TT = JDT 2454600.5                  MPC
M 105.69458              (2000.0)            P               Q
n   0.74466361     Peri.  129.08018     +0.26228609     -0.93064866
a   1.2054873      Node   303.85427     +0.76302726     +0.36187612
e   0.2939234      Incl.   17.89266     +0.59075834     -0.05421022
P   1.32           H   19.3           G   0.15           U   9
Residuals in seconds of arc
080305 E12  0.3-  0.3+    080306 G96  0.1+  0.0     080306 474  0.1-  0.1-
080305 E12  0.1+  0.3+    080306 G96  0.1+  0.1+    080306 E12  0.1-  0.3+
080305 E12  0.1-  0.3-    080306 G96  0.2+  0.0     080306 E12  0.2+  0.4-
080305 E12  0.2-  0.1-    080306 474  0.1-  0.4+    080306 E12  0.0   0.2-
080305 E12  0.4+  0.5-    080306 474  0.0   0.1+    080306 E12  0.3+  0.0
080305 E12  0.2+  0.3+    080306 474  0.4-  0.1-    080306 E12  0.1+  0.2+
080306 G96  0.3-  0.3-    080306 474  0.1-  0.1-

Ephemeris:
2008 EP6                 a,e,i = 1.21, 0.29, 18                  q = 0.8512
Date    TT    R. A. (2000) Decl.     Delta      r     Elong.  Phase     V
2008 03 05    06 31.12   -30 20.0    0.239    1.080   105.5    62.2    18.6
2008 03 15    07 11.11   -29 56.3    0.305    1.128   108.4    56.8    19.0
2008 03 25    07 42.37   -28 54.9    0.374    1.176   109.5    53.1    19.5
2008 04 04    08 09.62   -27 39.8    0.444    1.222   109.5    50.5    19.8
2008 04 14    08 35.14   -26 23.9    0.516    1.267   108.7    48.6    20.2
2008 04 24    08 59.92   -25 15.1    0.591    1.309   107.2    47.2    20.5
2008 05 04    09 24.39   -24 16.9    0.668    1.348   105.2    46.2    20.8
2008 05 14    09 48.82   -23 32.2    0.749    1.384   102.7    45.4    21.1
2008 05 24    10 13.25   -23 02.1    0.831    1.417    99.9    44.7    21.4
2008 06 03    10 37.69   -22 45.8    0.917    1.447    96.9    44.1    21.6
2008 06 13    11 02.20   -22 43.0    1.005    1.473    93.6    43.5    21.8
2008 06 23    11 26.75   -22 52.0    1.094    1.496    90.2    42.8    22.0

Sonia Keys                   (C) Copyright 2008 MPC           M.P.E.C. 2008-E57

Read MPEC 2008-E56 Read MPEC 2008-E58


Our Web policy. Index to the CBAT/MPC/ICQ pages.


Valid HTML 4.01!